Terminal Aerodrome Forecast
Issued by NWS

Home | Current Version | Previous Version | Text Only | Print | Product List | Glossary On
Versions: 1 2 3 4 5 6 7 8 9 10 11 12 13 14 15 16 17 18 19 20 21 22 23 24 25 26 27 28 29
000
FTPA31 PHFO 010500
TAFOGG
TAF
PHOG 010537Z 0106/0206 05008KT P6SM FEW030 SCT050
     FM010900 16005KT P6SM FEW050
     FM012000 04011KT P6SM VCSH SCT025 BKN050
     FM020500 10008KT P6SM FEW030 SCT050
      AMD LTD TO WX VIS AND WIND 0109/0116=

USA.gov is the U.S. government's official web portal to all federal, state and local government web resources and services.